www.pogodaiklimat.ru
ПОГОДА в Тулансинго
Время
(UTC), дата
21 12.11
00 13.11
03 13.11
06 13.11
12 13.11
15 13.11
18 13.11
21 13.11
00 14.11
03 14.11
06 14.11
09 14.11
12 14.11
15 14.11
18 14.11
21 14.11
00 15.11
03 15.11
06 15.11
12 15.11
15 15.11
18 15.11
21 15.11
00 16.11
03 16.11
06 16.11
12 16.11
15 16.11
18 16.11
21 16.11
00 17.11
03 17.11
06 17.11
09 17.11
12 17.11
15 17.11
18 17.11
21 17.11
00 18.11
03 18.11
06 18.11
09 18.11
12 18.11
15 18.11
18 18.11
21 18.11
00 19.11
03 19.11
06 19.11
12 19.11
15 19.11
18 19.11
Ветер
(напр.,м/с)
Видим. Явления Облачность Т
(С)
Тd
(С)
f
(%)
Тe
(С)
Тes
(С)
Комфортность P
(гПа)
Po
(гПа)
Тmin
(С)
Tmax
(С)
R
(мм)
R24
(мм)
S
(см)
СВ 3 18 км мгла {туман} 9/6 450 м
[Frnb Ac inh]
+15.6 +10.7 73 +15 +16 тепло 1016.1 786.4
В 2 15 км мгла {туман} 10/9 450 м
[St Ci]
+12.2 +8.6 79 +11 +11 тепло 1016.2 786.9 +11.8 +18.4 0.0
В 3 18 км мгла 10/10 600 м
[St]
+11.4 +9.3 87 +10 +10 тепло 1018.2 788.2
З 1 18 км мгла 3/0
[Ac trans]
+10.3 +8.3 87 +10 +10 тепло 1018.3 787.6 +10.3 +18.4
штиль 0 18 км мгла 3/0 2000 м
[Ac lent Ci fib]
+8.9 +7.6 92 +8 +8 тепло 1020.0 786.8 +8.8 +18.4 0.0
В 3 20 км мгла 3/0
[Ac cast Ci]
+14.2 +8.8 70 +13 +16 тепло 1020.5 787.3
В 3 20 км мгла 5/0
[Ac und Ci]
+22.4 +11.4 50 +25 +32 комфорт 1016.2 785.7 +8.4 +23.0
С 2 20 км мгла {туман} 10/8 600 м
[St Ac cuf]
+19.8 +12.7 64 +22 +23 комфорт 1011.4 784.0
СЗ 1 20 км мгла {туман} 9/3 600 м
[St Ac cuf]
+13.4 +10.3 81 +14 +14 тепло 1011.4 784.8 +8.4 +23.8
штиль 0 18 км мгла 4/0 2000 м
[Ac trans]
+11.4 +9.8 90 +11 +11 тепло 1013.1 786.1
штиль 0 18 км мгла 9/0 2000 м
[Ac trans]
+12.4 +11.2 92 +12 +12 тепло 1014.5 785.7 +8.4 +23.8
штиль 0 17 км мгла 9/0
[Ac trans]
+13.2 +10.4 83 +13 +13 тепло 1016.4 785.7
штиль 0 18 км 9/0 2000 м
[Ac und]
+13.0 +9.8 81 +13 +13 тепло 1016.6 785.5 +11.2 +23.8
З 1 20 км мгла {туман} 9/0 2000 м
[Ac und]
+13.6 +10.8 83 +14 +15 тепло 1019.6 788.1
СЗ 2 20 км мгла 9/0 2000 м
[Ac und]
+19.6 +11.8 61 +22 +26 комфорт 1016.9 787.0 +11.0 +20.0
ЮВ 2 20 км мгла 6/4 800 м
[Cu med, cong Ac und]
+19.4 +12.3 63 +21 +25 комфорт 1013.6 785.8
В 1 15 км мгла {туман} 10/8 450 м
[St Ac trans]
+15.0 +11.3 79 +16 +16 тепло 1014.2 786.9 +11.2 +23.6
В 1 18 км мгла 10/10 600 м
[St]
+13.1 +10.4 84 +13 +13 тепло 1017.6 789.5
СВ 2 18 км мгла 10/10 450 м
[St]
+12.5 +9.6 82 +12 +12 тепло 1019.1 789.9 +11.2 +23.6
ЮВ 1 18 км мгла 10/10 600 м
[St]
+11.2 +9.3 88 +11 +11 тепло 1021.3 789.1 +11.0 +23.6
С 1 20 км мгла {туман} 10/1 450 м
[St Ac As]
+10.4 +8.1 86 +10 +11 тепло 1023.8 790.5
С 3 20 км мгла 9/3 450 м
[St Ac cuf]
+12.8 +8.9 77 +11 +14 тепло 1022.9 789.8 +9.6 +14.8
З 1 20 км {туман} 4/1 600 м
[Cu med, cong Ac cuf Ci]
+17.0 +10.5 66 +18 +25 тепло 1019.6 788.0
В 1 15 км мгла {туман} 10/4 300 м
[St Ac cuf]
+10.0 +8.0 87 +10 +10 тепло 1019.7 788.4 +9.6 +17.8
штиль 0 3000 м дымка 10/10 300 м
[Frnb]
+8.6 +7.6 93 +8 +8 тепло 1021.8 789.7
штиль 0 3000 м 10/10 300 м
[Frnb]
+8.6 +7.6 93 +8 +8 тепло 1022.0 789.1 +8.5 +17.8
штиль 0 18 км дымка 1/1 300 м
[Frnb]
+8.0 +7.0 93 +7 +7 тепло 1022.8 787.6 +7.6
С 1 18 км мгла {туман} 5/0
[Ac und Ci]
+11.0 +8.4 84 +11 +14 тепло 1023.3 788.0
С 1 20 км мгла 4/0
[Ac cast Ci]
+20.6 +11.6 56 +24 +35 комфорт 1019.9 787.0 +7.0 +21.2
Ю 1 20 км мгла 6/0 2000 м
[Ac cast Ci]
+22.0 +9.8 46 +24 +29 комфорт 1014.2 785.0
СЗ 1 20 км мгла 5/0 2000 м
[Ac und Ci]
+16.6 +6.8 52 +18 +18 тепло 1013.0 785.8 +7.0 +23.8
ЮВ 1 18 км мгла 8/0 2000 м
[Ac und]
+13.4 +8.2 71 +14 +14 тепло 1013.5 787.0
Ю 2 18 км мгла 9/0 2000 м
[Ac und]
+12.0 +7.0 71 +11 +11 тепло 1013.8 786.4 +7.0 +23.8
СЗ 1 18 км мгла 8/0 2000 м
[Ac und]
+12.2 +6.1 66 +12 +12 тепло 1015.0 785.6
Ю 2 18 км мгла 1/1 1080 м
[Sc]
+10.6 +5.8 72 +9 +9 тепло 1016.8 785.7 +9.8 +23.8
Ю 1 20 км мгла ясно +15.6 +6.7 55 +16 +21 тепло 1018.4 786.7
СЗ 2 20 км мгла 3/1 600 м
[Cu med, cong Ci]
+23.2 +8.6 39 +24 +35 комфорт 1015.3 785.8 +9.8 +23.9
СВ 1 20 км мгла {туман} 4/1 800 м
[Cu med, cong Ac cuf Ci]
+23.2 +8.6 39 +24 +31 комфорт 1011.1 784.3
СЗ 1 20 км мгла {туман} 8/0 2000 м
[Ac trans Ci]
+17.4 +6.6 49 +18 +18 тепло 1010.4 785.1 +9.8 +24.5
ЮВ 2 18 км мгла ясно +13.8 +7.6 66 +13 +13 тепло 1012.3 787.1
ЮВ 1 18 км мгла 1/0
[Ac trans]
+11.7 +6.1 68 +12 +12 тепло 1013.5 786.5 +24.5
ЮВ 3 18 км мгла 4/0
[Ac trans]
+9.0 +4.2 72 +7 +7 тепло 1015.8 786.0
Ю 1 18 км мгла 5/0
[Cs]
+8.2 +3.9 74 +8 +8 тепло 1018.3 786.1 +8.2 +24.5
В 1 20 км мгла 6/0
[Cs]
+13.6 +5.4 58 +14 +18 тепло 1019.9 786.6
С 3 20 км мгла 3/0
[Ac und Ci]
+21.4 +9.0 45 +23 +32 комфорт 1016.3 785.1 +8.0 +22.2
С 2 20 км мгла {туман} 3/1 800 м
[Cu med, cong Ci]
+21.7 +11.0 51 +24 +30 комфорт 1011.3 783.5
СВ 2 15 км мгла {туман} 8/1 300 м
[St Ac cuf Ci]
+15.0 +11.7 81 +15 +15 тепло 1010.2 784.2 +8.0 +24.2
штиль 0 10 км мгла 8/8 800 м
[Sc]
+14.2 +11.4 83 +14 +14 тепло 1011.7 786.0
ЮВ 2 10 км мгла 8/0 2000 м
[Ac und]
+14.2 +11.4 83 +14 +14 тепло 1012.4 785.7 +8.0 +24.2
штиль 0 10 км мгла 9/9 1000 м
[Sc]
+12.8 +10.0 83 +12 +12 тепло 1015.2 785.4 +12.0 +24.2
Ю 1 20 км мгла 3/0
[Ac cast]
+16.8 +12.3 75 +18 +21 тепло 1016.9 786.8
С 2 20 км мгла 6/0
[Ac cuf]
+22.4 +12.4 53 +25 +32 комфорт 1013.6 785.4 +12.0 +23.8
Местоположение метеостанции Тулансинго (Мексика): широта 20.08 долгота -98.37 высота над уровнем моря 2181 м.
В архиве по умолчанию представлена погода в Тулансинго за последнюю неделю. Архивные данные за месяц целиком и за предыдущие месяцы, начиная с января 2011 года, Вы можете получить, выбрав интересующий диапазон дат из раскрывающегося списка и нажав кнопку "Найти!".
*Определитесь, кто Вы:
Внимание! Время в таблицах - всемирное. Для получения местного времени необходимо прибавить поправку, которая равна -6 ч.
Смотрите также архив погоды в соседних городах и на ближайших метеорологических станциях:
Партнеры нашего сайта:      
Пояснения к столбцам:
  • Ветер - указаны скорость ветра в м/с - средняя за 10 мин, порывы в срок и между сроками (в фигурных скобках) и направление, откуда дует ветер: С - северный,
  • СВ - северо-восточный, В - восточный, ЮВ - юго-восточный, Ю - южный, ЮЗ - юго-западный, З - западный, СЗ - северо-западный.
  • Видимость - горизонтальная дальность видимости в метрах или километрах. При видимости от 1 до 10 км при отсутствии осадков обычно наблюдается дымка, при ухудшении видимости до 1 км и менее - туман. В сухую погоду видимость может ухудшаться дымом, пылью или мглою.
  • Явления - указаны атмосферные явления, наблюдавшиеся в срок или в последний час перед сроком; фигурными скобками обозначены явления, наблюдавшиеся между сроками (за 1-3 часа до срока); квадратными скобками обозначены град или гололедные отложения с указанием их диаметра в мм.
  • Облачность - указаны через наклонную черту общая и нижняя облачность в баллах и высота нижней границы облаков в метрах; квадратными скобками обозначены формы облаков: Ci - перистые, Cs - перисто-слоистые, Cc - перисто-кучевые, Ac - высококучевые, As - высокослоистые, Sc - слоисто-кучевые, Ns - слоисто-дождевые, Cu - кучевые, Cb - кучево-дождевые. Подробнее классификацию облаков см. в Атласе облаков (PDF).
  • T - Температура воздуха - температура, измеренная на высоте 2 м над землей.
  • Td - Температура точки росы - температура, при понижении до которой содержащийся в воздухе водяной пар достигнет насыщения.
  • f - Относительная влажность воздуха - влажноcть воздуха, измеренная на высоте 2 м над землей.
  • Te - Эффективная температура - температура, которую ощущает одетый по сезону человек в тени. Характеристика душности погоды. При расчете учитывается влияние влажности воздуха и скорости ветра на теплоощущения человека.
  • Tes - Эффективная температура на солнце - температура, которую ощущает человек, с поправкой на солнечный нагрев. Характеристика знойности погоды. Зависит от высоты солнца над горизонтом, облачности и скорости ветра. Ночью, в пасмурную погоду, а также при ветре 12 м/с и более поправка равна нулю.
  • P - Атмосферное давление - приведенное к уровню моря атмосферное давление.
  • Po - Атмосферное давление - измеренное на уровне метеостанции атмосферное давление.
  • Tmin - Минимальная температура - минимум температуры воздуха на высоте 2 м над землей.
  • Tmax - Максимальная температура - максимум температуры воздуха на высоте 2 м над землей.
  • R - Количество осадков - Количество выпавших осадков за период времени, мм. При наведении курсора мыши на число - период времени, за который выпало указанное количество осадков.
  • R24 - Количество осадков - Количество выпавших осадков за 24 часа, мм.
  • S - Снежный покров - Высота снежного покрова, см. При наведении курсора мыши на число - состояние снежного покрова и степень покрытия местности в баллах.